| time (UTC) | temp F | wind direction | speed MPH | gust MPH | rain 1hr in | rain 24hr in | rain mn in | humidity % | barometer mb |
| 20260905182534 | 44 | 0 | 0.0 | 3.0 | 0.00 | 0.00 | 0.00 | 92 | 1001.5 |
| 20260905182030 | 44 | 315 | 0.0 | 3.0 | 0.00 | 0.00 | 0.00 | 92 | 1001.5 |
| 20260905181553 | 44 | 0 | 0.0 | 3.0 | 0.00 | 0.00 | 0.00 | 92 | 1001.5 |
| 20260905181029 | 44 | 0 | 0.0 | 3.0 | 0.00 | 0.00 | 0.00 | 91 | 1001.5 |
| 20260905180529 | 45 | 354 | 1.0 | 3.0 | 0.00 | 0.00 | 0.00 | 91 | 1001.4 |
| 20260905180049 | 45 | 351 | 0.0 | 4.0 | 0.00 | 0.00 | 0.00 | 90 | 1001.4 |
| 20260905175530 | 46 | 359 | 1.0 | 4.0 | 0.00 | 0.00 | 0.00 | 90 | 1001.3 |
| 20260905175030 | 46 | 347 | 1.0 | 5.0 | 0.00 | 0.00 | 0.00 | 90 | 1001.3 |
| 20260905174548 | 46 | 9 | 1.0 | 5.0 | 0.00 | 0.00 | 0.00 | 90 | 1001.3 |
| 20260905174031 | 46 | 35 | 1.0 | 6.0 | 0.00 | 0.00 | 0.00 | 89 | 1001.2 |
| 20260905173532 | 47 | 355 | 1.0 | 6.0 | 0.00 | 0.00 | 0.00 | 88 | 1001.2 |
| 20260905173052 | 47 | 26 | 1.0 | 6.0 | 0.00 | 0.00 | 0.00 | 88 | 1001.1 |
| 20260905172530 | 47 | 52 | 2.0 | 6.0 | 0.00 | 0.00 | 0.00 | 88 | 1001.1 |
| 20260905172030 | 47 | 44 | 2.0 | 8.0 | 0.00 | 0.00 | 0.00 | 87 | 1001.0 |
| 20260905171610 | 48 | 33 | 1.0 | 8.0 | 0.00 | 0.00 | 0.00 | 87 | 1000.9 |
| 20260905171034 | 48 | 4 | 3.0 | 9.0 | 0.00 | 0.00 | 0.00 | 87 | 1000.9 |
| 20260905170529 | 48 | 349 | 2.0 | 11.0 | 0.00 | 0.00 | 0.00 | 86 | 1000.9 |
| 20260905170101 | 49 | 4 | 4.0 | 12.0 | 0.00 | 0.00 | 0.00 | 86 | 1000.7 |
| 20260905165534 | 49 | 34 | 5.0 | 12.0 | 0.00 | 0.00 | 0.00 | 86 | 1000.7 |
| 20260905165031 | 49 | 24 | 4.0 | 11.0 | 0.00 | 0.00 | 0.00 | 85 | 1000.6 |
| 20260905164549 | 49 | 28 | 4.0 | 12.0 | 0.00 | 0.00 | 0.00 | 85 | 1000.7 |
| 20260905164030 | 49 | 20 | 2.0 | 13.0 | 0.00 | 0.00 | 0.00 | 85 | 1000.6 |
| 20260905163533 | 50 | 353 | 5.0 | 14.0 | 0.00 | 0.00 | 0.00 | 84 | 1000.5 |
| 20260905163056 | 50 | 355 | 5.0 | 14.0 | 0.00 | 0.00 | 0.00 | 85 | 1000.6 |
| 20260905162529 | 50 | 352 | 5.0 | 14.0 | 0.00 | 0.00 | 0.00 | 85 | 1000.4 |
| 20260905162029 | 51 | 340 | 7.0 | 14.0 | 0.00 | 0.00 | 0.00 | 86 | 1000.3 |
| 20260905161550 | 51 | 20 | 4.0 | 12.0 | 0.00 | 0.00 | 0.00 | 87 | 1000.4 |
| 20260905161033 | 51 | 51 | 3.0 | 15.0 | 0.00 | 0.00 | 0.00 | 87 | 1000.2 |
| 20260905160531 | 51 | 339 | 6.0 | 15.0 | 0.00 | 0.00 | 0.00 | 86 | 1000.1 |
| 20260905160058 | 51 | 338 | 6.0 | 15.0 | 0.00 | 0.00 | 0.00 | 85 | 1000.1 |
| 20260905155530 | 52 | 14 | 7.0 | 12.0 | 0.00 | 0.00 | 0.00 | 83 | 1000.0 |
| 20260905155032 | 53 | 43 | 4.0 | 11.0 | 0.00 | 0.00 | 0.00 | 82 | 1000.0 |
| 20260905154556 | 53 | 45 | 3.0 | 11.0 | 0.00 | 0.00 | 0.00 | 82 | 999.8 |
| 20260905154033 | 52 | 4 | 2.0 | 11.0 | 0.00 | 0.00 | 0.00 | 82 | 999.6 |
| 20260905153530 | 53 | 31 | 4.0 | 15.0 | 0.00 | 0.00 | 0.00 | 81 | 999.6 |
| 20260905153053 | 53 | 53 | 4.0 | 15.0 | 0.00 | 0.00 | 0.00 | 80 | 999.5 |
| 20260905152537 | 53 | 32 | 6.0 | 15.0 | 0.00 | 0.00 | 0.00 | 80 | 999.5 |
| 20260905152033 | 53 | 309 | 5.0 | 11.0 | 0.00 | 0.00 | 0.00 | 81 | 999.5 |
| 20260905151552 | 53 | 241 | 1.0 | 10.0 | 0.00 | 0.00 | 0.00 | 81 | 999.4 |
| 20260905151036 | 52 | 23 | 4.0 | 12.0 | 0.00 | 0.00 | 0.00 | 82 | 999.4 |
| 20260905150532 | 52 | 45 | 5.0 | 12.0 | 0.00 | 0.00 | 0.00 | 82 | 999.3 |
| 20260905150048 | 52 | 1 | 3.0 | 14.0 | 0.00 | 0.00 | 0.00 | 82 | 999.3 |
| 20260905145538 | 53 | 339 | 4.0 | 18.0 | 0.00 | 0.00 | 0.00 | 82 | 999.2 |
| 20260905145033 | 53 | 14 | 7.0 | 18.0 | 0.00 | 0.00 | 0.00 | 81 | 999.3 |
| 20260905144544 | 55 | 359 | 6.0 | 14.0 | 0.00 | 0.00 | 0.00 | 78 | 999.1 |
| 20260905144033 | 55 | 353 | 3.0 | 14.0 | 0.00 | 0.00 | 0.00 | 76 | 998.9 |
| 20260905143533 | 55 | 319 | 5.0 | 16.0 | 0.00 | 0.00 | 0.00 | 77 | 998.7 |
| 20260905143102 | 55 | 336 | 6.0 | 18.0 | 0.00 | 0.00 | 0.00 | 79 | 998.7 |
| 20260905142535 | 55 | 334 | 2.0 | 18.0 | 0.00 | 0.00 | 0.00 | 78 | 998.7 |
| 20260905142033 | 54 | 360 | 6.0 | 18.0 | 0.00 | 0.00 | 0.00 | 79 | 998.6 |
| 20260905141550 | 54 | 351 | 5.0 | 14.0 | 0.00 | 0.00 | 0.00 | 79 | 998.5 |
| 20260905141034 | 54 | 351 | 4.0 | 13.0 | 0.00 | 0.00 | 0.00 | 80 | 998.6 |
| 20260905140535 | 55 | 288 | 4.0 | 13.0 | 0.00 | 0.00 | 0.00 | 79 | 998.6 |
| 20260905140050 | 54 | 355 | 6.0 | 16.0 | 0.00 | 0.00 | 0.00 | 79 | 998.5 |
| 20260905135534 | 54 | 36 | 5.0 | 16.0 | 0.00 | 0.00 | 0.00 | 82 | 998.5 |
| 20260905135031 | 53 | 343 | 4.0 | 14.0 | 0.00 | 0.00 | 0.00 | 84 | 998.5 |
| 20260905134602 | 54 | 331 | 5.0 | 20.0 | 0.00 | 0.00 | 0.00 | 84 | 998.4 |
| 20260905134035 | 54 | 282 | 6.0 | 20.0 | 0.00 | 0.00 | 0.00 | 83 | 998.4 |
| 20260905133534 | 55 | 20 | 2.0 | 16.0 | 0.00 | 0.00 | 0.00 | 80 | 998.3 |
| 20260905133052 | 55 | 19 | 5.0 | 16.0 | 0.00 | 0.00 | 0.00 | 79 | 998.2 |
| 20260905132534 | 56 | 49 | 5.0 | 14.0 | 0.00 | 0.00 | 0.00 | 77 | 998.1 |
| 20260905132035 | 56 | 338 | 4.0 | 19.0 | 0.00 | 0.00 | 0.00 | 77 | 998.1 |
| 20260905131549 | 56 | 4 | 8.0 | 19.0 | 0.00 | 0.00 | 0.00 | 75 | 998.0 |
| 20260905131032 | 57 | 14 | 9.0 | 19.0 | 0.00 | 0.00 | 0.00 | 74 | 998.0 |
| 20260905130537 | 59 | 53 | 7.0 | 15.0 | 0.00 | 0.00 | 0.00 | 74 | 997.9 |
| 20260905130051 | 58 | 295 | 6.0 | 15.0 | 0.00 | 0.00 | 0.00 | 74 | 997.7 |
| 20260905125532 | 57 | 357 | 6.0 | 12.0 | 0.00 | 0.00 | 0.00 | 75 | 997.6 |
| 20260905125031 | 56 | 309 | 4.0 | 12.0 | 0.00 | 0.00 | 0.00 | 78 | 997.7 |
| 20260905124552 | 56 | 318 | 4.0 | 12.0 | 0.00 | 0.00 | 0.00 | 79 | 997.6 |
| 20260905124034 | 56 | 22 | 5.0 | 13.0 | 0.00 | 0.00 | 0.00 | 78 | 997.6 |
| 20260905123534 | 57 | 345 | 6.0 | 15.0 | 0.00 | 0.00 | 0.00 | 76 | 997.6 |
| 20260905123043 | 58 | 24 | 7.0 | 15.0 | 0.00 | 0.00 | 0.00 | 74 | 997.5 |
| 20260905122536 | 57 | 313 | 4.0 | 13.0 | 0.00 | 0.00 | 0.00 | 77 | 997.5 |
| 20260905122035 | 56 | 113 | 5.0 | 15.0 | 0.00 | 0.00 | 0.00 | 79 | 997.5 |
| 20260905121549 | 56 | 48 | 6.0 | 15.0 | 0.00 | 0.00 | 0.00 | 77 | 997.4 |
| 20260905121033 | 56 | 4 | 7.0 | 14.0 | 0.00 | 0.00 | 0.00 | 77 | 997.4 |
| 20260905120533 | 57 | 348 | 5.0 | 14.0 | 0.00 | 0.00 | 0.00 | 77 | 997.3 |
| 20260905120053 | 57 | 360 | 6.0 | 14.0 | 0.00 | 0.00 | 0.00 | 76 | 997.2 |
| 20260905115532 | 58 | 341 | 7.0 | 15.0 | 0.00 | 0.00 | 0.00 | 75 | 997.2 |
| 20260905115033 | 58 | 9 | 8.0 | 15.0 | 0.00 | 0.00 | 0.00 | 75 | 997.1 |
| 20260905114559 | 57 | 53 | 3.0 | 13.0 | 0.00 | 0.00 | 0.00 | 79 | 997.1 |
| 20260905114034 | 56 | 9 | 6.0 | 13.0 | 0.00 | 0.00 | 0.00 | 78 | 997.2 |
| 20260905113535 | 57 | 9 | 6.0 | 12.0 | 0.00 | 0.00 | 0.00 | 78 | 997.1 |
| 20260905113045 | 57 | 318 | 4.0 | 14.0 | 0.00 | 0.00 | 0.00 | 79 | 997.1 |
| 20260905112534 | 56 | 309 | 6.0 | 14.0 | 0.00 | 0.00 | 0.00 | 81 | 997.1 |
| 20260905112035 | 56 | 18 | 5.0 | 14.0 | 0.00 | 0.00 | 0.00 | 83 | 997.1 |
| 20260905111622 | 56 | 1 | 5.0 | 11.0 | 0.00 | 0.00 | 0.00 | 81 | 996.9 |
| 20260905111034 | 57 | 21 | 4.0 | 11.0 | 0.00 | 0.00 | 0.00 | 79 | 996.8 |
| 20260905110534 | 57 | 20 | 4.0 | 8.0 | 0.00 | 0.00 | 0.00 | 79 | 996.8 |
| 20260905110055 | 57 | 4 | 2.0 | 15.0 | 0.00 | 0.00 | 0.00 | 78 | 996.8 |
| 20260905105533 | 57 | 316 | 4.0 | 15.0 | 0.00 | 0.00 | 0.00 | 79 | 996.8 |
| 20260905105035 | 56 | 355 | 6.0 | 12.0 | 0.00 | 0.00 | 0.00 | 80 | 996.7 |
| 20260905104608 | 56 | 290 | 4.0 | 12.0 | 0.00 | 0.00 | 0.00 | 81 | 996.7 |
| 20260905104034 | 56 | 313 | 5.0 | 15.0 | 0.00 | 0.00 | 0.00 | 80 | 996.6 |
| 20260905103539 | 56 | 257 | 7.0 | 15.0 | 0.00 | 0.00 | 0.00 | 79 | 996.6 |
| 20260905103045 | 57 | 311 | 4.0 | 12.0 | 0.00 | 0.00 | 0.00 | 79 | 996.6 |
| 20260905102535 | 56 | 18 | 4.0 | 14.0 | 0.00 | 0.00 | 0.00 | 78 | 996.4 |
| 20260905102035 | 56 | 261 | 4.0 | 14.0 | 0.00 | 0.00 | 0.00 | 79 | 996.3 |
| 20260905101555 | 57 | 320 | 6.0 | 14.0 | 0.00 | 0.00 | 0.00 | 79 | 996.3 |
| 20260905101034 | 58 | 336 | 3.0 | 11.0 | 0.00 | 0.00 | 0.00 | 78 | 996.2 |
| 20260905100534 | 57 | 22 | 4.0 | 11.0 | 0.00 | 0.00 | 0.00 | 81 | 996.1 |
| 20260905100052 | 57 | 320 | 4.0 | 12.0 | 0.00 | 0.00 | 0.00 | 79 | 996.2 |
| 20260905095532 | 58 | 19 | 6.0 | 15.0 | 0.00 | 0.00 | 0.00 | 77 | 996.0 |
| 20260905095033 | 58 | 63 | 7.0 | 16.0 | 0.00 | 0.00 | 0.00 | 77 | 996.0 |
| 20260905094652 | 58 | 346 | 5.0 | 18.0 | 0.00 | 0.00 | 0.00 | 78 | 995.9 |
| 20260905094034 | 57 | 9 | 6.0 | 18.0 | 0.00 | 0.00 | 0.00 | 81 | 995.9 |
| 20260905093535 | 56 | 27 | 7.0 | 13.0 | 0.00 | 0.00 | 0.00 | 83 | 995.9 |
| 20260905093104 | 55 | 14 | 5.0 | 12.0 | 0.00 | 0.00 | 0.00 | 85 | 995.9 |
| 20260905092537 | 54 | 68 | 6.0 | 17.0 | 0.00 | 0.00 | 0.00 | 86 | 995.9 |
| 20260905092033 | 54 | 360 | 6.0 | 17.0 | 0.00 | 0.00 | 0.00 | 86 | 995.8 |
| 20260905091556 | 55 | 1 | 8.0 | 17.0 | 0.00 | 0.00 | 0.00 | 85 | 995.7 |
| 20260905091035 | 55 | 14 | 3.0 | 8.0 | 0.00 | 0.00 | 0.00 | 91 | 995.7 |
| 20260905090535 | 54 | 52 | 3.0 | 15.0 | 0.00 | 0.00 | 0.00 | 90 | 995.7 |
| 20260905090053 | 55 | 349 | 7.0 | 15.0 | 0.00 | 0.00 | 0.00 | 87 | 995.6 |
| 20260905085531 | 55 | 325 | 6.0 | 12.0 | 0.00 | 0.00 | 0.00 | 86 | 995.6 |
| 20260905085036 | 55 | 9 | 1.0 | 9.0 | 0.00 | 0.00 | 0.00 | 89 | 995.6 |
| 20260905084601 | 55 | 359 | 3.0 | 9.0 | 0.00 | 0.00 | 0.00 | 88 | 995.6 |
| 20260905084032 | 55 | 311 | 2.0 | 9.0 | 0.00 | 0.00 | 0.00 | 89 | 995.5 |
| 20260905083531 | 54 | 339 | 3.0 | 12.0 | 0.00 | 0.00 | 0.00 | 89 | 995.5 |
| 20260905083045 | 54 | 339 | 5.0 | 12.0 | 0.00 | 0.00 | 0.00 | 90 | 995.5 |
| 20260905082534 | 54 | 41 | 4.0 | 10.0 | 0.00 | 0.00 | 0.00 | 92 | 995.4 |
| 20260905082035 | 54 | 351 | 3.0 | 10.0 | 0.00 | 0.00 | 0.00 | 93 | 995.5 |
| 20260905081552 | 54 | 358 | 2.0 | 6.0 | 0.00 | 0.00 | 0.00 | 94 | 995.5 |
| 20260905081034 | 53 | 31 | 0.0 | 8.0 | 0.00 | 0.00 | 0.00 | 95 | 995.5 |
| 20260905080534 | 53 | 345 | 2.0 | 8.0 | 0.00 | 0.00 | 0.00 | 95 | 995.5 |
| 20260905080105 | 52 | 4 | 1.0 | 4.0 | 0.00 | 0.00 | 0.00 | 96 | 995.4 |
| 20260905075535 | 52 | 269 | 2.0 | 9.0 | 0.00 | 0.00 | 0.00 | 96 | 995.4 |
| 20260905075035 | 52 | 268 | 2.0 | 9.0 | 0.00 | 0.00 | 0.00 | 96 | 995.5 |
| 20260905074559 | 51 | 0 | 0.0 | 4.0 | 0.00 | 0.00 | 0.00 | 96 | 995.5 |
| 20260905074032 | 51 | 317 | 1.0 | 4.0 | 0.00 | 0.00 | 0.00 | 97 | 995.4 |
| 20260905073534 | 51 | 238 | 1.0 | 3.0 | 0.00 | 0.00 | 0.00 | 96 | 995.4 |
| 20260905073047 | 52 | 250 | 1.0 | 3.0 | 0.00 | 0.00 | 0.00 | 96 | 995.4 |
| 20260905072534 | 51 | 309 | 1.0 | 3.0 | 0.00 | 0.00 | 0.00 | 96 | 995.5 |
| 20260905072034 | 50 | 299 | 1.0 | 4.0 | 0.00 | 0.00 | 0.00 | 96 | 995.4 |
| 20260905071554 | 50 | 253 | 2.0 | 6.0 | 0.00 | 0.00 | 0.00 | 96 | 995.3 |
| 20260905071034 | 50 | 0 | 1.0 | 6.0 | 0.00 | 0.00 | 0.00 | 96 | 995.3 |
| 20260905070532 | 49 | 274 | 3.0 | 6.0 | 0.00 | 0.00 | 0.00 | 96 | 995.3 |
| 20260905070055 | 49 | 282 | 2.0 | 4.0 | 0.00 | 0.00 | 0.00 | 96 | 995.3 |
| 20260905065535 | 48 | 263 | 1.0 | 4.0 | 0.00 | 0.00 | 0.00 | 96 | 995.3 |
| 20260905065035 | 49 | 269 | 2.0 | 4.0 | 0.00 | 0.00 | 0.00 | 96 | 995.1 |
| 20260905064551 | 48 | 294 | 2.0 | 4.0 | 0.00 | 0.00 | 0.00 | 96 | 995.2 |
| 20260905064032 | 48 | 301 | 1.0 | 4.0 | 0.00 | 0.00 | 0.00 | 96 | 995.0 |
| 20260905063532 | 48 | 272 | 2.0 | 4.0 | 0.00 | 0.00 | 0.00 | 96 | 995.1 |
| 20260905063057 | 47 | 297 | 2.0 | 4.0 | 0.00 | 0.00 | 0.00 | 96 | 995.1 |
| 20260905062536 | 47 | 281 | 2.0 | 4.0 | 0.00 | 0.00 | 0.00 | 96 | 995.0 |
| 20260905062035 | 46 | 0 | 0.0 | 4.0 | 0.00 | 0.00 | 0.00 | 96 | 995.1 |
| 20260905061602 | 46 | 255 | 2.0 | 4.0 | 0.00 | 0.00 | 0.00 | 96 | 995.1 |
| 20260905061038 | 46 | 0 | 0.0 | 4.0 | 0.00 | 0.00 | 0.00 | 96 | 995.0 |
| 20260905060530 | 46 | 276 | 1.0 | 6.0 | 0.00 | 0.00 | 0.00 | 96 | 994.9 |
| 20260905055529 | 46 | 261 | 2.0 | 6.0 | 0.00 | 0.00 | 0.00 | 96 | 994.9 |
| 20260905055032 | 46 | 284 | 1.0 | 3.0 | 0.00 | 0.00 | 0.00 | 96 | 994.9 |
| 20260905054600 | 45 | 273 | 2.0 | 3.0 | 0.00 | 0.00 | 0.00 | 96 | 994.9 |
| 20260905054030 | 45 | 292 | 0.0 | 3.0 | 0.00 | 0.00 | 0.00 | 96 | 994.9 |
| 20260905053530 | 45 | 0 | 0.0 | 0.0 | 0.00 | 0.00 | 0.00 | 96 | 994.9 |
| 20260905053051 | 44 | 0 | 0.0 | 0.0 | 0.00 | 0.00 | 0.00 | 96 | 994.9 |
| 20260905052530 | 44 | 0 | 0.0 | 0.0 | 0.00 | 0.00 | 0.00 | 96 | 994.9 |
| 20260905052033 | 43 | 0 | 0.0 | 0.0 | 0.00 | 0.00 | 0.00 | 96 | 994.9 |
| 20260905051603 | 43 | 0 | 0.0 | 0.0 | 0.00 | 0.00 | 0.00 | 96 | 994.9 |
| 20260905051030 | 42 | 0 | 0.0 | 0.0 | 0.00 | 0.00 | 0.00 | 96 | 994.8 |
| 20260905050533 | 42 | 0 | 0.0 | 0.0 | 0.00 | 0.00 | 0.00 | 96 | 994.9 |
| 20260905050044 | 41 | 0 | 0.0 | 0.0 | 0.00 | 0.00 | 0.00 | 96 | 994.9 |
| 20260905045530 | 41 | 0 | 0.0 | 0.0 | 0.00 | 0.00 | 0.00 | 96 | 995.0 |
| 20260905045033 | 41 | 0 | 0.0 | 0.0 | 0.00 | 0.00 | 0.00 | 95 | 994.9 |
| 20260905044552 | 41 | 0 | 0.0 | 0.0 | 0.00 | 0.00 | 0.00 | 96 | 994.9 |
| 20260905044032 | 40 | 0 | 0.0 | 0.0 | 0.00 | 0.00 | 0.00 | 95 | 995.0 |
| 20260905043529 | 40 | 0 | 0.0 | 0.0 | 0.00 | 0.00 | 0.00 | 95 | 994.9 |
| 20260905043049 | 40 | 0 | 0.0 | 0.0 | 0.00 | 0.00 | 0.00 | 96 | 995.0 |
| 20260905042530 | 40 | 0 | 0.0 | 0.0 | 0.00 | 0.00 | 0.00 | 95 | 995.0 |
| 20260905042029 | 39 | 0 | 0.0 | 0.0 | 0.00 | 0.00 | 0.00 | 95 | 994.9 |
| 20260905041548 | 39 | 0 | 0.0 | 0.0 | 0.00 | 0.00 | 0.00 | 95 | 994.9 |
| 20260905041031 | 39 | 0 | 0.0 | 0.0 | 0.00 | 0.00 | 0.00 | 95 | 995.0 |
| 20260905040533 | 39 | 0 | 0.0 | 0.0 | 0.00 | 0.00 | 0.00 | 95 | 995.0 |
| 20260905040106 | 38 | 0 | 0.0 | 0.0 | 0.00 | 0.00 | 0.00 | 95 | 995.0 |
| 20260905035533 | 38 | 0 | 0.0 | 0.0 | 0.00 | 0.00 | 0.00 | 95 | 994.8 |
| 20260905035029 | 38 | 0 | 0.0 | 0.0 | 0.00 | 0.00 | 0.00 | 95 | 994.8 |
| 20260905034550 | 38 | 0 | 0.0 | 0.0 | 0.00 | 0.00 | 0.00 | 95 | 994.8 |
| 20260905034031 | 38 | 0 | 0.0 | 0.0 | 0.00 | 0.00 | 0.00 | 95 | 994.8 |
| 20260905033532 | 37 | 0 | 0.0 | 0.0 | 0.00 | 0.00 | 0.00 | 95 | 994.7 |
| 20260905033052 | 37 | 0 | 0.0 | 0.0 | 0.00 | 0.00 | 0.00 | 94 | 994.9 |
| 20260905032533 | 37 | 0 | 0.0 | 0.0 | 0.00 | 0.00 | 0.00 | 94 | 994.8 |
| 20260905032032 | 37 | 0 | 0.0 | 0.0 | 0.00 | 0.00 | 0.00 | 94 | 994.8 |
| 20260905031552 | 37 | 0 | 0.0 | 0.0 | 0.00 | 0.00 | 0.00 | 94 | 994.8 |
| 20260905031030 | 37 | 0 | 0.0 | 0.0 | 0.00 | 0.00 | 0.00 | 94 | 994.8 |
| 20260905030529 | 37 | 0 | 0.0 | 0.0 | 0.00 | 0.00 | 0.00 | 94 | 994.7 |
| 20260905025537 | 37 | 0 | 0.0 | 0.0 | 0.00 | 0.00 | 0.00 | 94 | 994.8 |
| 20260905025031 | 36 | 0 | 0.0 | 0.0 | 0.00 | 0.00 | 0.00 | 94 | 994.7 |
| 20260905024600 | 36 | 0 | 0.0 | 0.0 | 0.00 | 0.00 | 0.00 | 94 | 994.9 |
| 20260905024036 | 36 | 0 | 0.0 | 0.0 | 0.00 | 0.00 | 0.00 | 94 | 994.8 |
| 20260905023534 | 36 | 0 | 0.0 | 0.0 | 0.00 | 0.00 | 0.00 | 94 | 994.8 |
| 20260905023055 | 36 | 0 | 0.0 | 0.0 | 0.00 | 0.00 | 0.00 | 94 | 994.8 |
| 20260905022531 | 36 | 0 | 0.0 | 0.0 | 0.00 | 0.00 | 0.00 | 94 | 994.8 |
| 20260905022033 | 36 | 0 | 0.0 | 0.0 | 0.00 | 0.00 | 0.00 | 94 | 994.8 |
| 20260905021555 | 36 | 0 | 0.0 | 0.0 | 0.00 | 0.00 | 0.00 | 94 | 994.8 |
| 20260905021033 | 36 | 0 | 0.0 | 0.0 | 0.00 | 0.00 | 0.00 | 94 | 994.8 |
| 20260905020533 | 36 | 0 | 0.0 | 0.0 | 0.00 | 0.00 | 0.00 | 94 | 994.7 |
| 20260905020052 | 36 | 0 | 0.0 | 0.0 | 0.00 | 0.00 | 0.00 | 93 | 994.7 |
| 20260905015533 | 36 | 0 | 0.0 | 0.0 | 0.00 | 0.00 | 0.00 | 93 | 994.7 |
| 20260905015032 | 36 | 0 | 0.0 | 0.0 | 0.00 | 0.00 | 0.00 | 93 | 994.7 |
| 20260905014550 | 36 | 0 | 0.0 | 0.0 | 0.00 | 0.00 | 0.00 | 93 | 994.8 |
| 20260905014034 | 36 | 0 | 0.0 | 0.0 | 0.00 | 0.00 | 0.00 | 93 | 994.8 |
| 20260905013532 | 36 | 0 | 0.0 | 0.0 | 0.00 | 0.00 | 0.00 | 93 | 994.9 |
| 20260905013106 | 36 | 0 | 0.0 | 0.0 | 0.00 | 0.00 | 0.00 | 93 | 994.9 |
| 20260905012532 | 36 | 0 | 0.0 | 0.0 | 0.00 | 0.00 | 0.00 | 93 | 994.8 |
| 20260905012035 | 36 | 0 | 0.0 | 0.0 | 0.00 | 0.00 | 0.00 | 93 | 994.9 |
| 20260905011556 | 36 | 0 | 0.0 | 0.0 | 0.00 | 0.00 | 0.00 | 93 | 994.9 |
| 20260905011034 | 36 | 0 | 0.0 | 0.0 | 0.00 | 0.00 | 0.00 | 93 | 994.9 |
| 20260905010534 | 36 | 0 | 0.0 | 0.0 | 0.00 | 0.00 | 0.00 | 93 | 995.0 |
| 20260905010058 | 36 | 0 | 0.0 | 0.0 | 0.00 | 0.00 | 0.00 | 93 | 994.9 |
| 20260905005533 | 36 | 0 | 0.0 | 0.0 | 0.00 | 0.00 | 0.00 | 93 | 994.9 |
| 20260905005034 | 36 | 0 | 0.0 | 0.0 | 0.00 | 0.00 | 0.00 | 93 | 995.0 |
| 20260905004548 | 36 | 0 | 0.0 | 0.0 | 0.00 | 0.00 | 0.00 | 92 | 995.0 |
| 20260905004035 | 36 | 0 | 0.0 | 0.0 | 0.00 | 0.00 | 0.00 | 92 | 995.0 |
| 20260905003535 | 36 | 0 | 0.0 | 0.0 | 0.00 | 0.00 | 0.00 | 92 | 995.0 |
| 20260905003055 | 37 | 0 | 0.0 | 0.0 | 0.00 | 0.00 | 0.00 | 92 | 995.0 |
| 20260905002533 | 37 | 0 | 0.0 | 0.0 | 0.00 | 0.00 | 0.00 | 92 | 995.1 |
| 20260905002038 | 37 | 0 | 0.0 | 0.0 | 0.00 | 0.00 | 0.00 | 92 | 995.0 |
| 20260905001553 | 37 | 0 | 0.0 | 0.0 | 0.00 | 0.00 | 0.00 | 92 | 995.0 |
| 20260905001033 | 37 | 0 | 0.0 | 0.0 | 0.00 | 0.00 | 0.00 | 92 | 995.1 |
| 20260905000535 | 37 | 0 | 0.0 | 0.0 | 0.00 | 0.00 | 0.00 | 92 | 995.0 |
| 20260905000055 | 37 | 0 | 0.0 | 0.0 | 0.00 | 0.00 | 0.00 | 92 | 995.1 |
| 20260904235531 | 38 | 0 | 0.0 | 0.0 | 0.00 | 0.00 | 0.00 | 92 | 995.1 |
| 20260904235034 | 38 | 0 | 0.0 | 0.0 | 0.00 | 0.00 | 0.00 | 92 | 995.1 |
| 20260904234548 | 38 | 0 | 0.0 | 0.0 | 0.00 | 0.00 | 0.00 | 93 | 995.3 |
| 20260904234034 | 38 | 0 | 0.0 | 0.0 | 0.00 | 0.00 | 0.00 | 92 | 995.2 |
| 20260904233536 | 38 | 0 | 0.0 | 0.0 | 0.00 | 0.00 | 0.00 | 92 | 995.2 |
| 20260904233053 | 38 | 0 | 0.0 | 0.0 | 0.00 | 0.00 | 0.00 | 93 | 995.3 |
| 20260904232534 | 38 | 0 | 0.0 | 0.0 | 0.00 | 0.00 | 0.00 | 93 | 995.3 |
| 20260904232033 | 38 | 0 | 0.0 | 0.0 | 0.00 | 0.00 | 0.00 | 92 | 995.3 |
| 20260904231551 | 39 | 0 | 0.0 | 0.0 | 0.00 | 0.00 | 0.00 | 92 | 995.4 |
| 20260904231033 | 39 | 0 | 0.0 | 0.0 | 0.00 | 0.00 | 0.00 | 92 | 995.4 |
| 20260904230533 | 39 | 0 | 0.0 | 0.0 | 0.00 | 0.00 | 0.00 | 92 | 995.4 |
| 20260904230106 | 39 | 0 | 0.0 | 0.0 | 0.00 | 0.00 | 0.00 | 92 | 995.5 |
| 20260904225535 | 39 | 0 | 0.0 | 0.0 | 0.00 | 0.00 | 0.00 | 92 | 995.5 |
| 20260904225035 | 39 | 0 | 0.0 | 0.0 | 0.00 | 0.00 | 0.00 | 92 | 995.5 |
| 20260904224547 | 39 | 0 | 0.0 | 0.0 | 0.00 | 0.00 | 0.00 | 92 | 995.6 |
| 20260904224034 | 39 | 0 | 0.0 | 0.0 | 0.00 | 0.00 | 0.00 | 92 | 995.5 |
| 20260904223534 | 39 | 0 | 0.0 | 0.0 | 0.00 | 0.00 | 0.00 | 92 | 995.5 |
| 20260904223103 | 39 | 0 | 0.0 | 0.0 | 0.00 | 0.00 | 0.00 | 92 | 995.6 |
| 20260904222537 | 40 | 0 | 0.0 | 0.0 | 0.00 | 0.00 | 0.00 | 91 | 995.5 |
| 20260904222032 | 40 | 0 | 0.0 | 0.0 | 0.00 | 0.00 | 0.00 | 92 | 995.5 |
| 20260904221615 | 40 | 0 | 0.0 | 0.0 | 0.00 | 0.00 | 0.00 | 91 | 995.6 |
| 20260904221034 | 40 | 0 | 0.0 | 0.0 | 0.00 | 0.00 | 0.00 | 91 | 995.6 |
| 20260904220533 | 40 | 0 | 0.0 | 0.0 | 0.00 | 0.00 | 0.00 | 91 | 995.8 |
| 20260904220052 | 40 | 0 | 0.0 | 0.0 | 0.00 | 0.00 | 0.00 | 91 | 995.8 |
| 20260904215533 | 41 | 0 | 0.0 | 0.0 | 0.00 | 0.00 | 0.00 | 91 | 995.8 |
| 20260904215034 | 41 | 0 | 0.0 | 0.0 | 0.00 | 0.00 | 0.00 | 91 | 995.8 |
| 20260904214552 | 41 | 0 | 0.0 | 0.0 | 0.00 | 0.00 | 0.00 | 91 | 995.8 |
| 20260904214034 | 41 | 0 | 0.0 | 0.0 | 0.00 | 0.00 | 0.00 | 91 | 995.9 |
| 20260904213534 | 41 | 0 | 0.0 | 0.0 | 0.00 | 0.00 | 0.00 | 91 | 995.8 |
| 20260904213059 | 41 | 0 | 0.0 | 0.0 | 0.00 | 0.00 | 0.00 | 91 | 995.8 |
| 20260904212535 | 42 | 0 | 0.0 | 0.0 | 0.00 | 0.00 | 0.00 | 91 | 995.9 |
| 20260904212034 | 42 | 0 | 0.0 | 0.0 | 0.00 | 0.00 | 0.00 | 91 | 995.8 |
| 20260904211552 | 42 | 0 | 0.0 | 0.0 | 0.00 | 0.00 | 0.00 | 91 | 995.9 |
| 20260904211033 | 42 | 0 | 0.0 | 0.0 | 0.00 | 0.00 | 0.00 | 91 | 995.8 |
| 20260904210534 | 42 | 0 | 0.0 | 0.0 | 0.00 | 0.00 | 0.00 | 91 | 995.9 |
| 20260904210048 | 42 | 0 | 0.0 | 0.0 | 0.00 | 0.00 | 0.00 | 91 | 995.9 |
| 20260904205534 | 43 | 0 | 0.0 | 0.0 | 0.00 | 0.01 | 0.00 | 90 | 995.9 |
| 20260904205032 | 43 | 0 | 0.0 | 0.0 | 0.00 | 0.01 | 0.00 | 90 | 996.0 |
| 20260904204553 | 43 | 0 | 0.0 | 0.0 | 0.00 | 0.01 | 0.00 | 90 | 996.0 |
| 20260904204033 | 43 | 0 | 0.0 | 0.0 | 0.00 | 0.01 | 0.00 | 90 | 996.1 |
| 20260904203536 | 43 | 0 | 0.0 | 0.0 | 0.00 | 0.01 | 0.00 | 90 | 996.0 |
| 20260904203053 | 44 | 0 | 0.0 | 0.0 | 0.00 | 0.01 | 0.00 | 90 | 996.0 |
| 20260904202530 | 44 | 0 | 0.0 | 0.0 | 0.00 | 0.01 | 0.00 | 90 | 996.0 |
| 20260904202029 | 44 | 0 | 0.0 | 0.0 | 0.00 | 0.01 | 0.00 | 90 | 996.0 |
| 20260904201603 | 44 | 0 | 0.0 | 0.0 | 0.00 | 0.01 | 0.00 | 89 | 996.0 |
| 20260904201033 | 45 | 0 | 0.0 | 0.0 | 0.00 | 0.01 | 0.00 | 89 | 996.1 |
| 20260904200532 | 45 | 0 | 0.0 | 0.0 | 0.00 | 0.01 | 0.00 | 89 | 996.0 |
| 20260904200108 | 45 | 0 | 0.0 | 0.0 | 0.00 | 0.01 | 0.00 | 89 | 996.1 |
| 20260904195533 | 45 | 0 | 0.0 | 0.0 | 0.00 | 0.07 | 0.00 | 89 | 996.0 |
| 20260904195032 | 46 | 0 | 0.0 | 0.0 | 0.00 | 0.07 | 0.00 | 89 | 996.1 |
| 20260904194551 | 46 | 0 | 0.0 | 0.0 | 0.00 | 0.07 | 0.00 | 89 | 996.1 |
| 20260904194032 | 46 | 0 | 0.0 | 0.0 | 0.00 | 0.07 | 0.00 | 89 | 996.1 |
| 20260904193531 | 47 | 0 | 0.0 | 0.0 | 0.00 | 0.07 | 0.00 | 89 | 996.3 |
| 20260904193052 | 47 | 0 | 0.0 | 0.0 | 0.00 | 0.07 | 0.00 | 89 | 996.3 |
| 20260904192529 | 47 | 0 | 0.0 | 0.0 | 0.00 | 0.07 | 0.00 | 89 | 996.3 |
| 20260904192032 | 48 | 0 | 0.0 | 0.0 | 0.00 | 0.07 | 0.00 | 88 | 996.3 |
| 20260904191549 | 48 | 0 | 0.0 | 0.0 | 0.00 | 0.07 | 0.00 | 88 | 996.4 |
| 20260904191031 | 48 | 0 | 0.0 | 0.0 | 0.00 | 0.07 | 0.00 | 88 | 996.4 |
| 20260904190531 | 49 | 0 | 0.0 | 0.0 | 0.00 | 0.07 | 0.00 | 88 | 996.4 |
| 20260904190056 | 49 | 0 | 0.0 | 0.0 | 0.00 | 0.07 | 0.00 | 88 | 996.4 |
| 20260904185532 | 49 | 0 | 0.0 | 0.0 | 0.00 | 0.07 | 0.00 | 88 | 996.4 |
| 20260904185032 | 49 | 0 | 0.0 | 0.0 | 0.00 | 0.07 | 0.00 | 88 | 996.5 |
| 20260904184554 | 50 | 0 | 0.0 | 0.0 | 0.00 | 0.07 | 0.00 | 88 | 996.5 |
| 20260904184030 | 50 | 0 | 0.0 | 0.0 | 0.00 | 0.07 | 0.00 | 87 | 996.5 |
| 20260904183534 | 50 | 0 | 0.0 | 0.0 | 0.00 | 0.07 | 0.00 | 87 | 996.6 |
| 20260904183049 | 50 | 0 | 0.0 | 0.0 | 0.00 | 0.07 | 0.00 | 87 | 996.6 |